Regional Weather Roundup
Issued by NWS

Home | Current Version | Previous Version | Text Only | Print | Product List | Glossary On
Versions: 1 2 3 4 5 6 7 8 9 10 11 12 13 14 15 16 17 18 19 20 21 22 23 24 25 26 27
000
ASUS42 KKEY 091610
RWRKEY

FLORIDA REGIONAL WEATHER ROUNDUP FOR THE FLORIDA KEYS
NATIONAL WEATHER SERVICE KEY WEST FLORIDA
1100 AM EST FRI DEC 09 2016

...SOUTH FLORIDA AND THE KEYS...

CITY           SKY/WX    TMP DP  RH WIND       PRES   REMARKS
FORT MYERS     CLOUDY    64  55  72 N16       30.27R
SW REGIONAL AP CLOUDY    65  54  67 NE13      30.27R
NAPLES         PTSUNNY   66  57  72 N15G26    30.23R
MIAMI          PTSUNNY   71  62  73 N8G20     30.20S
WEST KENDALL   CLOUDY    71  62  73 N14       30.20S
HOMESTEAD      MOSUNNY   73  70  90 N15       30.18S
MARATHON       CLOUDY    75  67  76 NE14      30.17S
BOCA CHICA NAS PTSUNNY   73  66  78 NE17G25   30.18S
KEY WEST INTL  PTSUNNY   76  68  76 NE16G25   30.18S

...INTERNATIONAL WEATHER...

CITY           SKY/WX    TMP DP  RH WIND       PRES   REMARKS
NASSAU BAHAMAS PTSUNNY   75  72  88 N17       30.15S
CANCUN MEXICO  PTSUNNY   84  72  65 E5        30.12F
COZUMEL MEXICO MOSUNNY   84  73  70 E7        30.10S HX  91

ADJACENT COASTAL WATERS...

STATION/POSITION TIME  SKY/WX   TEMP    WIND        PRES    WAVE
                                AIR SEA DIR/SP/G            HT/PER
                 (UTC)          (F)     (DEG/KT/KT) (MB)    (FT/S)
PULASKI SHOAL LI 1600            73      40/ 23/ 24 1022.7R
SAND KEY         1550            72      40/ 22/ 25 1022.2R
LONG KEY         1500            71 78   20/ 21/ 25 1022.1R
MOLASSES REEF    1600            73 79   20/ 20/ 21 1021.3F
FOWEY ROCKS      1600            74 78  360/ 22/ 24 1023.0R

$$




USA.gov is the U.S. government's official web portal to all federal, state and local government web resources and services.